Time,TemperatureF,DewpointF,PressureIn,WindDirection,WindDirectionDegrees,WindSpeedMPH,WindSpeedGustMPH,Humidity,HourlyPrecipIn,Conditions,Clouds,dailyrainin,SoftwareType,DateUTC
2013-04-27 00:00:00,62.4,56.1,30.23,South,186,0.0,0.0,80,0.00,,,0.00,Wunderground v.1.15,2013-04-27 05:00:00,
2013-04-27 00:10:00,62.1,56.2,30.23,South,186,0.0,0.0,81,0.00,,,0.00,Wunderground v.1.15,2013-04-27 05:10:00,
2013-04-27 00:20:00,62.0,56.1,30.23,South,186,0.0,0.0,81,0.00,,,0.00,Wunderground v.1.15,2013-04-27 05:20:00,
2013-04-27 00:30:00,61.8,55.9,30.22,South,186,0.0,0.0,81,0.00,,,0.00,Wunderground v.1.15,2013-04-27 05:30:00,
2013-04-27 00:40:00,61.6,56.0,30.22,South,186,0.0,0.0,82,0.00,,,0.00,Wunderground v.1.15,2013-04-27 05:40:00,
2013-04-27 00:50:00,61.4,55.9,30.22,South,186,0.0,0.0,82,0.00,,,0.00,Wunderground v.1.15,2013-04-27 05:50:00,
2013-04-27 01:00:00,61.3,55.8,30.22,South,186,0.0,0.0,82,0.00,,,0.00,Wunderground v.1.15,2013-04-27 06:00:00,
2013-04-27 01:10:00,61.2,55.7,30.21,South,186,0.0,0.0,82,0.00,,,0.00,Wunderground v.1.15,2013-04-27 06:10:00,
2013-04-27 01:20:00,61.0,55.8,30.21,South,186,0.0,0.0,83,0.00,,,0.00,Wunderground v.1.15,2013-04-27 06:20:00,
2013-04-27 01:30:00,60.9,55.7,30.20,South,186,0.0,0.0,83,0.00,,,0.00,Wunderground v.1.15,2013-04-27 06:30:00,
2013-04-27 01:40:00,60.9,56.4,30.19,South,186,0.0,0.0,85,0.00,,,0.00,Wunderground v.1.15,2013-04-27 06:40:00,
2013-04-27 01:50:00,60.9,55.7,30.19,South,186,0.0,0.0,83,0.00,,,0.00,Wunderground v.1.15,2013-04-27 06:50:00,
2013-04-27 02:00:00,60.8,55.6,30.19,South,186,0.0,0.0,83,0.00,,,0.00,Wunderground v.1.15,2013-04-27 07:00:00,
2013-04-27 02:10:00,60.7,55.5,30.18,South,186,0.0,0.0,83,0.00,,,0.00,Wunderground v.1.15,2013-04-27 07:10:00,
2013-04-27 02:20:00,60.6,55.4,30.18,South,186,0.0,0.0,83,0.00,,,0.00,Wunderground v.1.15,2013-04-27 07:20:00,
2013-04-27 02:30:00,60.5,55.3,30.17,South,186,0.0,0.0,83,0.00,,,0.00,Wunderground v.1.15,2013-04-27 07:30:00,
2013-04-27 02:40:00,60.5,55.3,30.17,South,186,0.0,0.0,83,0.00,,,0.00,Wunderground v.1.15,2013-04-27 07:40:00,
2013-04-27 02:50:00,60.4,55.2,30.17,South,186,0.0,0.0,83,0.00,,,0.00,Wunderground v.1.15,2013-04-27 07:50:00,
2013-04-27 03:00:00,60.3,55.1,30.17,South,186,0.0,0.0,83,0.00,,,0.00,Wunderground v.1.15,2013-04-27 08:00:00,
2013-04-27 03:10:00,60.3,55.1,30.17,South,186,0.0,0.0,83,0.00,,,0.00,Wunderground v.1.15,2013-04-27 08:10:00,
2013-04-27 03:20:00,60.1,54.9,30.16,South,186,0.0,0.0,83,0.00,,,0.00,Wunderground v.1.15,2013-04-27 08:20:00,
2013-04-27 03:30:00,60.0,55.2,30.16,South,186,0.0,0.0,84,0.00,,,0.00,Wunderground v.1.15,2013-04-27 08:30:00,
2013-04-27 03:40:00,60.0,55.2,30.16,South,186,0.0,0.0,84,0.00,,,0.00,Wunderground v.1.15,2013-04-27 08:40:00,
2013-04-27 03:50:00,59.9,55.1,30.16,South,186,0.0,0.0,84,0.00,,,0.00,Wunderground v.1.15,2013-04-27 08:50:00,
2013-04-27 04:00:00,59.8,55.0,30.16,South,186,0.0,0.0,84,0.00,,,0.00,Wunderground v.1.15,2013-04-27 09:00:00,
2013-04-27 04:10:00,59.7,54.9,30.16,South,186,0.0,0.0,84,0.00,,,0.00,Wunderground v.1.15,2013-04-27 09:10:00,
2013-04-27 04:20:00,59.6,54.8,30.15,South,186,0.0,0.0,84,0.00,,,0.00,Wunderground v.1.15,2013-04-27 09:20:00,
2013-04-27 04:30:00,59.6,54.8,30.15,South,186,0.0,0.0,84,0.00,,,0.00,Wunderground v.1.15,2013-04-27 09:30:00,
2013-04-27 04:40:00,59.5,54.7,30.15,South,186,0.0,0.0,84,0.00,,,0.00,Wunderground v.1.15,2013-04-27 09:40:00,
2013-04-27 04:50:00,59.3,54.5,30.15,South,186,0.0,0.0,84,0.00,,,0.00,Wunderground v.1.15,2013-04-27 09:50:00,
2013-04-27 05:00:00,59.2,54.4,30.15,South,186,0.0,0.0,84,0.00,,,0.00,Wunderground v.1.15,2013-04-27 10:00:00,
2013-04-27 05:10:00,59.1,54.3,30.15,South,186,0.0,0.0,84,0.00,,,0.00,Wunderground v.1.15,2013-04-27 10:10:00,
2013-04-27 05:20:00,59.1,54.3,30.15,South,186,0.0,0.0,84,0.00,,,0.00,Wunderground v.1.15,2013-04-27 10:20:00,
2013-04-27 05:30:00,59.0,54.2,30.14,South,186,0.0,0.0,84,0.00,,,0.00,Wunderground v.1.15,2013-04-27 10:30:00,
2013-04-27 05:40:00,58.8,54.0,30.14,South,186,0.0,0.0,84,0.00,,,0.00,Wunderground v.1.15,2013-04-27 10:40:00,
2013-04-27 05:50:00,58.8,54.0,30.15,South,186,0.0,0.0,84,0.00,,,0.00,Wunderground v.1.15,2013-04-27 10:50:00,
2013-04-27 06:00:00,58.7,53.9,30.16,South,186,0.0,0.0,84,0.00,,,0.00,Wunderground v.1.15,2013-04-27 11:00:00,
2013-04-27 06:10:00,58.6,53.8,30.17,South,186,0.0,0.0,84,0.00,,,0.00,Wunderground v.1.15,2013-04-27 11:10:00,
2013-04-27 06:20:00,58.5,53.7,30.18,South,186,0.0,0.0,84,0.00,,,0.00,Wunderground v.1.15,2013-04-27 11:20:00,
2013-04-27 06:30:00,58.4,53.6,30.18,South,186,0.0,0.0,84,0.00,,,0.00,Wunderground v.1.15,2013-04-27 11:30:00,
2013-04-27 06:40:00,58.4,53.6,30.19,South,186,0.0,0.0,84,0.00,,,0.00,Wunderground v.1.15,2013-04-27 11:40:00,
2013-04-27 06:50:00,58.5,53.7,30.19,South,186,0.0,0.0,84,0.00,,,0.00,Wunderground v.1.15,2013-04-27 11:50:00,
2013-04-27 07:00:00,58.5,53.7,30.20,South,186,0.0,0.0,84,0.00,,,0.00,Wunderground v.1.15,2013-04-27 12:00:00,
2013-04-27 07:10:00,58.7,53.9,30.19,South,186,0.0,0.0,84,0.00,,,0.00,Wunderground v.1.15,2013-04-27 12:10:00,
2013-04-27 07:20:00,59.0,54.5,30.20,South,186,0.0,0.0,85,0.00,,,0.00,Wunderground v.1.15,2013-04-27 12:20:00,
2013-04-27 07:30:00,59.3,54.8,30.20,South,186,0.0,0.0,85,0.00,,,0.00,Wunderground v.1.15,2013-04-27 12:30:00,
2013-04-27 07:40:00,59.8,55.3,30.20,South,186,0.0,0.0,85,0.00,,,0.00,Wunderground v.1.15,2013-04-27 12:40:00,
2013-04-27 07:50:00,60.5,56.0,30.20,South,186,0.0,0.0,85,0.00,,,0.00,Wunderground v.1.15,2013-04-27 12:50:00,
2013-04-27 08:00:00,61.1,56.6,30.20,South,186,0.0,0.0,85,0.00,,,0.00,Wunderground v.1.15,2013-04-27 13:00:00,
2013-04-27 08:10:00,61.6,57.0,30.20,South,186,0.0,0.0,85,0.00,,,0.00,Wunderground v.1.15,2013-04-27 13:10:00,
2013-04-27 08:20:00,62.5,58.3,30.21,South,186,0.0,0.0,86,0.00,,,0.00,Wunderground v.1.15,2013-04-27 13:20:00,
2013-04-27 08:30:00,64.1,59.8,30.21,South,186,0.0,0.0,86,0.00,,,0.00,Wunderground v.1.15,2013-04-27 13:30:00,
2013-04-27 08:40:00,65.6,61.3,30.20,South,186,0.0,1.0,86,0.00,,,0.00,Wunderground v.1.15,2013-04-27 13:40:00,
2013-04-27 08:50:00,66.3,62.0,30.21,South,186,0.0,0.0,86,0.00,,,0.00,Wunderground v.1.15,2013-04-27 13:50:00,
2013-04-27 09:00:00,66.6,62.3,30.21,South,186,0.0,0.0,86,0.00,,,0.00,Wunderground v.1.15,2013-04-27 14:00:00,
2013-04-27 09:10:00,67.2,62.9,30.21,SSE,164,0.0,0.0,86,0.00,,,0.00,Wunderground v.1.15,2013-04-27 14:10:00,
2013-04-27 09:20:00,68.5,64.1,30.21,SSE,164,0.0,0.0,86,0.00,,,0.00,Wunderground v.1.15,2013-04-27 14:20:00,
2013-04-27 09:30:00,69.7,64.6,30.21,SSE,166,0.0,0.0,84,0.00,,,0.00,Wunderground v.1.15,2013-04-27 14:30:00,
2013-04-27 09:40:00,70.9,64.8,30.20,SSE,166,0.0,0.0,81,0.00,,,0.00,Wunderground v.1.15,2013-04-27 14:40:00,
2013-04-27 09:50:00,72.1,64.1,30.21,SSE,166,0.0,0.0,76,0.00,,,0.00,Wunderground v.1.15,2013-04-27 14:50:00,
2013-04-27 10:00:00,73.3,64.5,30.20,SSE,151,0.0,0.0,74,0.00,,,0.00,Wunderground v.1.15,2013-04-27 15:00:00,
2013-04-27 10:10:00,74.7,64.7,30.20,SSE,150,0.0,0.0,71,0.00,,,0.00,Wunderground v.1.15,2013-04-27 15:10:00,
2013-04-27 10:20:00,75.7,64.0,30.19,ENE,69,0.0,1.0,67,0.00,,,0.00,Wunderground v.1.15,2013-04-27 15:20:00,
2013-04-27 10:30:00,76.3,65.0,30.20,SSW,198,0.0,0.0,68,0.00,,,0.00,Wunderground v.1.15,2013-04-27 15:30:00,
2013-04-27 10:40:00,76.6,64.0,30.20,SSW,197,0.0,0.0,65,0.00,,,0.00,Wunderground v.1.15,2013-04-27 15:40:00,
2013-04-27 10:50:00,77.1,63.5,30.20,SW,220,0.0,0.0,63,0.00,,,0.00,Wunderground v.1.15,2013-04-27 15:50:00,
2013-04-27 11:00:00,77.5,63.9,30.20,South,180,0.0,5.0,63,0.00,,,0.00,Wunderground v.1.15,2013-04-27 16:00:00,
2013-04-27 11:10:00,77.5,63.9,30.19,SSW,197,1.0,1.0,63,0.00,,,0.00,Wunderground v.1.15,2013-04-27 16:10:00,
2013-04-27 11:20:00,77.7,64.1,30.19,ESE,106,0.0,0.0,63,0.00,,,0.00,Wunderground v.1.15,2013-04-27 16:20:00,
2013-04-27 11:30:00,77.8,64.2,30.19,SW,219,1.0,1.0,63,0.00,,,0.00,Wunderground v.1.15,2013-04-27 16:30:00,
2013-04-27 11:40:00,78.3,64.2,30.19,SSW,204,0.0,0.0,62,0.00,,,0.00,Wunderground v.1.15,2013-04-27 16:40:00,
2013-04-27 11:50:00,78.9,64.8,30.18,South,185,1.0,1.0,62,0.00,,,0.00,Wunderground v.1.15,2013-04-27 16:50:00,
2013-04-27 12:00:00,79.2,65.1,30.18,SSW,208,1.0,1.0,62,0.00,,,0.00,Wunderground v.1.15,2013-04-27 17:00:00,
2013-04-27 12:10:00,79.5,64.9,30.18,ESE,112,0.0,0.0,61,0.00,,,0.00,Wunderground v.1.15,2013-04-27 17:10:00,
2013-04-27 12:20:00,79.6,64.5,30.18,South,175,1.0,2.0,60,0.00,,,0.00,Wunderground v.1.15,2013-04-27 17:20:00,
2013-04-27 12:30:00,79.9,64.3,30.17,SSE,167,0.0,0.0,59,0.00,,,0.00,Wunderground v.1.15,2013-04-27 17:30:00,
2013-04-27 12:40:00,80.0,64.9,30.17,South,186,0.0,0.0,60,0.00,,,0.00,Wunderground v.1.15,2013-04-27 17:40:00,
2013-04-27 12:50:00,79.6,63.0,30.16,SSE,165,1.0,1.0,57,0.00,,,0.00,Wunderground v.1.15,2013-04-27 17:50:00,
2013-04-27 13:00:00,80.4,63.8,30.16,South,177,1.0,1.0,57,0.00,,,0.00,Wunderground v.1.15,2013-04-27 18:00:00,
2013-04-27 13:10:00,80.3,63.2,30.17,South,191,1.0,1.0,56,0.00,,,0.00,Wunderground v.1.15,2013-04-27 18:10:00,
2013-04-27 13:20:00,80.5,63.9,30.16,South,175,0.0,0.0,57,0.00,,,0.00,Wunderground v.1.15,2013-04-27 18:20:00,
2013-04-27 13:30:00,80.6,64.0,30.16,South,178,0.0,0.0,57,0.00,,,0.00,Wunderground v.1.15,2013-04-27 18:30:00,
2013-04-27 13:40:00,80.8,64.6,30.15,ESE,108,0.0,0.0,58,0.00,,,0.00,Wunderground v.1.15,2013-04-27 18:40:00,
2013-04-27 13:50:00,81.3,64.1,30.15,South,171,1.0,1.0,56,0.00,,,0.00,Wunderground v.1.15,2013-04-27 18:50:00,
2013-04-27 14:00:00,81.0,65.3,30.15,South,180,1.0,1.0,59,0.00,,,0.00,Wunderground v.1.15,2013-04-27 19:00:00,
2013-04-27 14:10:00,80.4,65.2,30.15,SSW,198,0.0,0.0,60,0.00,,,0.00,Wunderground v.1.15,2013-04-27 19:10:00,
2013-04-27 14:20:00,80.9,65.7,30.14,SSW,195,0.0,0.0,60,0.00,,,0.00,Wunderground v.1.15,2013-04-27 19:20:00,
2013-04-27 14:30:00,81.8,66.6,30.14,SW,216,1.0,1.0,60,0.00,,,0.00,Wunderground v.1.15,2013-04-27 19:30:00,
2013-04-27 14:40:00,80.6,65.4,30.13,SSW,194,1.0,2.0,60,0.00,,,0.00,Wunderground v.1.15,2013-04-27 19:40:00,
2013-04-27 14:50:00,80.7,66.0,30.14,SSW,207,0.0,0.0,61,0.00,,,0.00,Wunderground v.1.15,2013-04-27 19:50:00,
2013-04-27 15:00:00,80.8,66.6,30.13,South,186,1.0,1.0,62,0.00,,,0.00,Wunderground v.1.15,2013-04-27 20:00:00,
2013-04-27 15:10:00,79.8,66.1,30.13,SSW,200,1.0,2.0,63,0.00,,,0.00,Wunderground v.1.15,2013-04-27 20:10:00,
2013-04-27 15:20:00,79.5,65.8,30.13,SSW,198,1.0,1.0,63,0.00,,,0.00,Wunderground v.1.15,2013-04-27 20:20:00,
2013-04-27 15:30:00,80.3,66.1,30.12,SSW,202,0.0,0.0,62,0.00,,,0.00,Wunderground v.1.15,2013-04-27 20:30:00,
2013-04-27 15:40:00,80.3,66.1,30.12,SSW,196,0.0,1.0,62,0.00,,,0.00,Wunderground v.1.15,2013-04-27 20:40:00,
2013-04-27 15:50:00,79.4,66.6,30.11,SSW,198,1.0,1.0,65,0.00,,,0.00,Wunderground v.1.15,2013-04-27 20:50:00,
2013-04-27 16:00:00,79.8,66.5,30.11,South,180,1.0,1.0,64,0.00,,,0.00,Wunderground v.1.15,2013-04-27 21:00:00,
2013-04-27 16:10:00,80.7,66.5,30.11,SSW,196,1.0,1.0,62,0.00,,,0.00,Wunderground v.1.15,2013-04-27 21:10:00,
2013-04-27 16:20:00,81.3,66.1,30.11,South,181,1.0,1.0,60,0.00,,,0.00,Wunderground v.1.15,2013-04-27 21:20:00,
2013-04-27 16:30:00,80.4,65.2,30.11,SSE,159,1.0,1.0,60,0.00,,,0.00,Wunderground v.1.15,2013-04-27 21:30:00,
2013-04-27 16:40:00,79.7,63.6,30.11,South,187,1.0,1.0,58,0.00,,,0.00,Wunderground v.1.15,2013-04-27 21:40:00,
2013-04-27 16:50:00,78.9,64.3,30.11,South,180,1.0,1.0,61,0.00,,,0.00,Wunderground v.1.15,2013-04-27 21:50:00,
2013-04-27 17:00:00,78.6,64.0,30.11,SSE,167,1.0,1.0,61,0.00,,,0.00,Wunderground v.1.15,2013-04-27 22:00:00,
2013-04-27 17:10:00,78.8,65.1,30.11,SW,234,0.0,0.0,63,0.00,,,0.00,Wunderground v.1.15,2013-04-27 22:10:00,
2013-04-27 17:20:00,78.8,64.2,30.10,SSW,194,1.0,1.0,61,0.00,,,0.00,Wunderground v.1.15,2013-04-27 22:20:00,
2013-04-27 17:30:00,78.8,64.7,30.10,South,175,1.0,4.0,62,0.00,,,0.00,Wunderground v.1.15,2013-04-27 22:30:00,
2013-04-27 17:40:00,78.6,64.5,30.10,South,186,1.0,1.0,62,0.00,,,0.00,Wunderground v.1.15,2013-04-27 22:40:00,
2013-04-27 17:50:00,78.2,64.6,30.10,SSW,202,1.0,4.0,63,0.00,,,0.00,Wunderground v.1.15,2013-04-27 22:50:00,
2013-04-27 18:00:00,77.8,64.2,30.09,SSW,197,1.0,1.0,63,0.00,,,0.00,Wunderground v.1.15,2013-04-27 23:00:00,
2013-04-27 18:10:00,77.6,64.5,30.09,South,190,1.0,1.0,64,0.00,,,0.00,Wunderground v.1.15,2013-04-27 23:10:00,
2013-04-27 18:20:00,77.4,64.7,30.09,South,181,1.0,1.0,65,0.00,,,0.00,Wunderground v.1.15,2013-04-27 23:20:00,
2013-04-27 18:30:00,76.9,64.2,30.09,South,181,0.0,0.0,65,0.00,,,0.00,Wunderground v.1.15,2013-04-27 23:30:00,
2013-04-27 18:40:00,76.6,64.8,30.09,South,186,0.0,2.0,67,0.00,,,0.00,Wunderground v.1.15,2013-04-27 23:40:00,
2013-04-27 18:50:00,76.1,64.8,30.09,SSW,196,1.0,1.0,68,0.00,,,0.00,Wunderground v.1.15,2013-04-27 23:50:00,
2013-04-27 19:00:00,75.7,65.2,30.08,SSW,194,0.0,1.0,70,0.00,,,0.00,Wunderground v.1.15,2013-04-28 00:00:00,
2013-04-27 19:10:00,75.4,65.7,30.09,SSW,193,0.0,0.0,72,0.00,,,0.00,Wunderground v.1.15,2013-04-28 00:10:00,
2013-04-27 19:20:00,75.2,65.9,30.09,SSW,193,0.0,0.0,73,0.00,,,0.00,Wunderground v.1.15,2013-04-28 00:20:00,
2013-04-27 19:30:00,74.8,66.0,30.09,SSW,193,0.0,0.0,74,0.00,,,0.00,Wunderground v.1.15,2013-04-28 00:30:00,
2013-04-27 19:40:00,74.3,65.9,30.07,SSW,193,0.0,0.0,75,0.00,,,0.00,Wunderground v.1.15,2013-04-28 00:40:00,
2013-04-27 19:50:00,73.9,66.2,30.07,SSW,193,0.0,0.0,77,0.00,,,0.00,Wunderground v.1.15,2013-04-28 00:50:00,
2013-04-27 20:00:00,73.6,66.3,30.06,SSW,193,0.0,0.0,78,0.00,,,0.00,Wunderground v.1.15,2013-04-28 01:00:00,
2013-04-27 20:10:00,73.2,66.3,30.07,South,187,0.0,0.0,79,0.00,,,0.00,Wunderground v.1.15,2013-04-28 01:10:00,
2013-04-27 20:20:00,72.8,65.9,30.06,South,187,0.0,0.0,79,0.00,,,0.00,Wunderground v.1.15,2013-04-28 01:20:00,
2013-04-27 20:30:00,72.5,66.0,30.06,SSE,148,0.0,0.0,80,0.00,,,0.00,Wunderground v.1.15,2013-04-28 01:30:00,
2013-04-27 20:40:00,72.2,65.7,30.07,South,180,0.0,0.0,80,0.00,,,0.00,Wunderground v.1.15,2013-04-28 01:40:00,
2013-04-27 20:50:00,72.0,65.5,30.07,South,186,0.0,0.0,80,0.00,,,0.00,Wunderground v.1.15,2013-04-28 01:50:00,
2013-04-27 21:00:00,71.8,65.7,30.08,South,186,0.0,0.0,81,0.00,,,0.00,Wunderground v.1.15,2013-04-28 02:00:00,
2013-04-27 21:10:00,71.6,65.5,30.08,South,186,0.0,0.0,81,0.00,,,0.00,Wunderground v.1.15,2013-04-28 02:10:00,
2013-04-27 21:20:00,71.3,65.2,30.07,South,186,0.0,0.0,81,0.00,,,0.00,Wunderground v.1.15,2013-04-28 02:20:00,
2013-04-27 21:30:00,71.1,65.3,30.08,South,186,0.0,0.0,82,0.00,,,0.00,Wunderground v.1.15,2013-04-28 02:30:00,
2013-04-27 21:40:00,70.9,65.1,30.08,South,186,0.0,0.0,82,0.00,,,0.00,Wunderground v.1.15,2013-04-28 02:40:00,
2013-04-27 21:50:00,70.5,64.7,30.08,South,186,0.0,0.0,82,0.00,,,0.00,Wunderground v.1.15,2013-04-28 02:50:00,
2013-04-27 22:00:00,70.1,64.3,30.10,South,186,0.0,0.0,82,0.00,,,0.00,Wunderground v.1.15,2013-04-28 03:00:00,
2013-04-27 22:10:00,69.8,64.1,30.11,South,186,0.0,0.0,82,0.00,,,0.00,Wunderground v.1.15,2013-04-28 03:10:00,
2013-04-27 22:20:00,69.4,63.7,30.10,South,186,0.0,0.0,82,0.00,,,0.00,Wunderground v.1.15,2013-04-28 03:20:00,
2013-04-27 22:30:00,69.0,63.3,30.10,South,186,0.0,0.0,82,0.00,,,0.00,Wunderground v.1.15,2013-04-28 03:30:00,
2013-04-27 22:40:00,68.8,63.4,30.10,South,186,0.0,0.0,83,0.00,,,0.00,Wunderground v.1.15,2013-04-28 03:40:00,
2013-04-27 22:50:00,68.5,63.1,30.09,South,186,0.0,0.0,83,0.00,,,0.00,Wunderground v.1.15,2013-04-28 03:50:00,
2013-04-27 23:00:00,68.3,62.9,30.09,South,186,0.0,0.0,83,0.00,,,0.00,Wunderground v.1.15,2013-04-28 04:00:00,
2013-04-27 23:10:00,67.9,62.5,30.10,South,186,0.0,0.0,83,0.00,,,0.00,Wunderground v.1.15,2013-04-28 04:10:00,
2013-04-27 23:20:00,67.5,62.2,30.10,South,186,0.0,0.0,83,0.00,,,0.00,Wunderground v.1.15,2013-04-28 04:20:00,
2013-04-27 23:30:00,67.3,62.0,30.10,South,186,0.0,0.0,83,0.00,,,0.00,Wunderground v.1.15,2013-04-28 04:30:00,
2013-04-27 23:40:00,67.2,62.2,30.09,South,186,0.0,0.0,84,0.00,,,0.00,Wunderground v.1.15,2013-04-28 04:40:00,
2013-04-27 23:50:00,67.2,62.2,30.08,South,186,0.0,0.0,84,0.00,,,0.00,Wunderground v.1.15,2013-04-28 04:50:00,